Location: Shell Point
(30.0571°N, 84.2896°W)
Time: 04:00:59
(UTC-05:00)

Meteor 2-19 Rocket - Visible Passes

Search period start: 25 February 2017 00:00
Search period end: 07 March 2017 00:00
Orbit: 937 x 958 km, 82.5° (Epoch: 24 February)

Date Brightness Start Highest point End Pass type
(mag) Time Alt. Az. Time Alt. Az. Time Alt. Az.
26 Feb7.121:26:09N21:26:09N21:11:09SSWvisible
27 Feb6.719:57:27NNE19:57:27NNE19:45:53SEvisible
27 Feb 6.8 21:41:22 14° NNW 21:41:22 14° NNW 21:42:15 10° NNW visible
28 Feb 5.5 20:03:19 10° SSE 20:11:21 26° NE 20:14:25 10° NNE visible
28 Feb 6.5 21:48:51 10° SW 21:54:59 22° WNW 21:58:32 10° NNW visible
01 Mar 4.3 20:19:41 10° S 20:25:42 63° E 20:31:47 10° NNE visible
01 Mar 7.0 22:07:51 10° WSW 22:10:56 14° WNW 22:14:02 10° NW visible
02 Mar 4.4 20:36:33 10° S 20:42:39 80° W 20:48:50 10° N visible
03 Mar 5.7 19:11:22 10° SE 19:15:23 18° E 19:19:24 10° NE visible
03 Mar 5.3 20:53:49 10° SSW 20:59:41 47° W 21:05:37 10° N visible
04 Mar 7.8 06:11:42 10° ENE 06:13:02 11° ENE 06:14:21 10° E visible
04 Mar 5.1 19:26:52 10° SSE 19:32:07 31° E 19:37:25 10° NNE visible
04 Mar 6.2 21:11:37 10° SW 21:16:49 29° WNW 21:22:03 10° NNW visible
05 Mar 7.2 06:26:07 10° NNE 06:30:21 19° ENE 06:34:32 10° ESE visible
05 Mar 4.5 19:43:04 10° SSE 19:48:57 52° E 19:54:55 10° NNE visible
05 Mar 6.9 21:30:10 10° WSW 21:34:02 17° WNW 21:37:55 10° NW visible
06 Mar 4.4 19:59:44 10° S 20:05:52 87° E 20:12:04 10° N visible
